Wind_Speed
2 3 4 8 6 7 15 10 6 4 9 15 21 17 15 14 14 13 11 12 11 10 14 15 17 18 21 23 21 20 20 19 18 19 18 17 18 18 18 19 20 20 20 20 20 20 19 19 19
1 2 3 6 10 21 21 23 21 10 15 17 17 18 14 13 13 13 12 11 13 12 14 19 22 22 20 20 20 20 19 19 20 20 21 22 23 23 22 22 22 22 22 23 23 23 23 22 23
1 1 2 1 12 25 21 15 17 23 18 12 11 12 9 10 11 12 12 13 14 13 11 16 22 21 18 17 17 17 16 18 19 21 22 22 24 24 24 24 25 25 25 25 25 24 25 24 24
3 4 4 4 6 29 8 9 22 27 6 12 6 8 9 9 11 12 11 9 10 10 9 10 14 17 16 14 15 15 16 18 19 19 20 21 22 23 24 24 25 26 27 28 29 28 28 28 27
6 7 5 9 26 25 20 6 30 25 9 11 8 7 7 7 8 10 11 13 11 11 10 9 10 11 13 15 16 16 17 19 20 21 23 25 27 27 27 28 29 29 29 29 29 30 31 32 32
9 10 5 13 24 24 3 5 18 14 10 8 9 8 7 8 10 11 12 12 13 12 12 13 13 14 16 18 19 20 20 20 20 22 24 26 27 29 29 31 31 32 32 32 33 33 34 34 34
14 17 10 9 30 20 12 11 9 25 4 14 5 7 8 10 11 10 10 13 14 14 15 16 18 19 21 22 22 24 25 28 29 30 31 32 34 34 32 33 33 33 36 37 38 39 39 40 40
20 22 17 9 24 29 28 23 5 7 18 14 12 9 10 11 10 10 9 10 12 15 15 15 17 19 20 16 23 24 25 27 28 29 30 30 31 33 33 33 35 35 36 37 37 38 39 40 41
24 24 19 13 5 28 33 37 22 25 14 11 8 10 12 13 13 10 8 9 10 13 14 15 18 18 17 20 21 21 20 22 23 23 25 25 26 28 27 28 31 32 33 33 35 36 38 40 42
19 19 14 15 8 20 30 17 32 23 14 12 8 7 11 13 14 11 10 11 12 13 15 17 19 21 22 23 22 21 20 18 21 22 23 24 25 26 27 26 28 29 30 30 32 34 35 34 36
14 13 13 11 11 19 28 35 30 24 11 8 8 7 11 12 12 11 11 13 13 14 17 19 21 23 24 24 25 26 27 30 27 26 29 26 26 28 29 30 30 30 32 34 32 33 34 36 37
13 13 14 17 23 31 19 28 27 5 8 14 13 11 13 14 13 12 10 11 13 15 18 21 22 24 27 27 29 29 30 31 30 27 30 30 30 33 34 34 35 36 36 35 36 37 37 38 37
14 15 17 23 27 19 29 31 28 18 20 20 17 15 16 17 15 16 13 12 13 16 17 19 20 23 25 28 29 30 32 28 30 30 32 34 35 36 37 37 38 39 39 40 40 40 40 39 40
17 17 19 19 22 19 21 33 18 20 19 18 19 19 18 19 18 18 17 16 16 17 17 18 21 22 24 27 31 32 33 33 33 33 34 35 35 37 39 40 41 41 43 42 42 42 42 42 41
20 18 18 17 18 20 25 27 24 16 19 20 21 22 23 21 21 21 20 19 20 19 21 21 22 24 28 31 32 33 34 34 35 35 36 39 41 44 46 46 46 44 45 45 45 44 44 43 42
20 19 19 18 19 19 22 24 22 19 20 20 22 23 26 26 26 25 23 22 21 22 22 23 26 30 33 35 37 34 33 33 36 38 40 43 46 47 48 48 48 46 47 47 46 45 45 44 43
19 18 15 14 21 16 20 21 24 22 23 23 24 24 25 26 28 27 24 24 25 25 25 29 31 33 36 39 40 36 34 36 38 41 42 45 47 48 49 51 50 50 49 49 47 46 45 43 43
14 12 13 21 25 28 26 23 23 24 23 23 26 27 27 26 24 25 25 27 27 28 29 32 35 38 42 41 40 39 40 41 43 44 44 44 46 47 48 49 49 50 52 51 48 45 46 45 42
12 14 14 17 31 22 17 31 21 21 21 25 25 28 27 22 19 24 28 30 31 31 33 36 39 42 44 43 42 42 43 45 46 48 48 47 50 50 51 50 51 51 52 49 48 46 46 44 41
19 16 15 18 24 21 21 29 26 26 27 28 25 25 24 22 22 27 30 31 34 34 38 41 43 46 44 43 43 44 46 48 49 51 53 52 49 48 48 47 48 48 48 47 46 45 46 43 41
23 20 17 23 30 37 34 29 41 18 18 23 25 24 26 25 26 31 35 37 38 38 41 43 45 45 44 43 44 47 49 51 53 53 52 50 49 47 46 45 44 44 44 44 44 43 41 39 39
20 19 19 23 33 30 22 21 32 29 31 21 24 25 30 29 30 33 36 37 39 41 43 44 44 43 43 44 47 49 51 51 53 54 53 50 49 47 44 41 40 39 39 38 37 36 34 33 32
17 13 16 21 14 22 25 25 20 35 39 24 22 21 31 32 30 31 33 36 39 40 41 41 41 42 44 46 47 48 50 53 54 54 53 50 45 41 38 34 33 32 30 28 27 22 18 16 15
17 13 24 29 20 21 17 30 29 28 22 18 21 33 34 31 31 30 31 33 36 36 36 38 40 43 45 45 47 50 52 53 53 50 46 42 40 37 32 29 26 22 20 18 16 13 12 13 16
19 20 17 16 16 18 16 29 32 36 37 30 38 28 27 29 25 27 30 32 32 31 34 37 41 43 43 44 47 49 50 49 48 46 43 41 37 34 31 25 17 15 14 13 10 12 15 16 17
24 20 19 17 19 21 25 15 32 31 31 38 40 37 39 7 31 31 30 28 29 31 35 38 40 41 41 44 46 47 45 44 44 43 39 34 27 24 19 14 12 10 8 8 12 15 16 18 20
20 22 18 20 19 20 22 14 22 27 40 35 31 33 27 35 37 35 28 28 29 32 35 37 38 38 40 43 43 40 41 39 39 38 33 24 16 11 9 7 6 5 7 11 14 17 18 19 19
19 16 20 22 26 22 15 22 30 25 35 34 26 32 39 36 34 28 26 29 30 32 34 35 36 37 41 42 36 33 34 36 35 34 30 22 13 8 7 5 5 7 10 14 16 17 18 20 23
25 26 20 21 24 23 27 28 25 24 23 36 35 40 35 29 28 25 27 28 30 32 32 34 34 35 40 37 30 30 31 32 31 28 26 21 14 10 7 7 8 11 12 14 16 17 21 24 26
25 22 26 28 26 22 24 28 16 20 29 35 32 38 46 25 25 26 27 29 31 32 30 32 33 35 38 33 26 27 27 27 27 25 22 19 16 12 10 10 10 12 14 16 19 22 24 26 28
Wind_Direction
105 90 82 57 333 318 246 67 68 15 345 331 322 320 312 305 299 312 311 309 304 263 281 262 255 253 247 249 248 248 253 259 265 269 269 271 269 266 264 258 256 252 248 246 247 246 245 248 253
99 90 130 90 310 323 316 282 108 339 321 316 315 313 303 285 276 290 301 308 330 303 268 269 272 265 259 257 255 261 265 266 264 264 265 267 268 268 263 261 259 256 252 250 251 252 251 249 249
268 272 214 236 353 258 301 272 63 312 306 321 308 318 322 306 297 305 304 291 290 294 288 264 264 273 269 260 262 267 267 266 266 270 271 271 274 274 274 270 267 265 263 262 261 259 260 260 258
238 260 253 32 313 276 313 305 297 295 42 321 331 325 318 318 306 307 316 312 300 306 307 287 270 266 271 269 272 272 272 272 273 274 276 277 276 276 276 274 272 269 266 265 264 263 263 262 261
237 264 247 48 263 256 262 25 297 301 336 321 351 332 330 325 310 309 316 327 327 320 315 298 281 281 279 281 280 280 283 285 286 286 285 284 282 281 280 279 277 274 273 272 270 270 268 267 266
248 256 219 278 267 276 183 264 304 330 319 314 358 333 328 325 320 322 324 324 320 310 306 294 291 289 284 284 284 284 284 290 288 288 286 288 285 283 282 281 278 276 274 272 272 271 270 269 267
250 255 206 263 291 287 267 261 273 270 13 318 325 327 332 330 330 330 323 318 316 309 306 298 292 292 295 289 291 291 288 291 291 291 289 288 291 286 282 281 280 277 277 274 272 271 271 271 270
256 255 241 181 311 316 308 293 341 285 325 315 332 337 331 334 331 328 324 316 311 310 311 308 311 311 297 310 294 291 291 291 292 289 286 288 286 283 283 282 282 280 278 276 276 275 274 274 273
248 250 246 183 246 283 280 289 283 286 301 303 314 319 318 328 334 332 326 323 319 314 313 319 317 318 309 308 313 309 306 304 299 297 294 295 293 291 288 288 288 286 284 283 281 279 276 275 274
244 247 242 206 205 278 289 286 273 281 295 282 285 296 304 323 325 327 332 324 326 324 323 324 320 315 313 310 305 304 302 306 307 305 304 304 305 302 301 299 297 298 295 293 289 286 283 280 279
235 240 223 190 231 217 243 256 272 255 287 311 294 297 311 316 323 314 327 323 327 326 325 316 312 310 308 310 305 305 308 307 306 307 304 305 308 306 308 308 306 305 303 301 296 290 289 286 285
239 235 229 195 225 230 227 266 299 106 227 307 303 309 310 315 321 320 313 312 316 319 317 312 311 306 304 303 301 302 301 301 302 303 303 305 305 308 310 308 307 306 306 303 301 298 296 293 288
243 243 229 237 234 244 232 249 272 285 294 293 302 306 311 316 319 327 310 303 309 309 307 307 308 304 303 302 299 299 297 296 299 301 301 300 300 300 302 304 305 304 303 301 300 299 297 294 291
250 246 248 248 248 249 240 256 272 265 272 282 291 299 305 307 312 317 308 301 296 304 303 305 308 307 307 305 301 299 297 294 295 296 298 301 299 298 299 299 300 300 297 297 296 296 294 292 291
243 250 250 249 251 244 239 259 266 271 272 280 288 295 299 302 307 309 304 297 293 301 304 301 305 304 307 313 311 308 298 296 298 297 292 293 294 296 296 297 298 298 295 294 294 294 292 289 288
242 245 253 261 251 246 251 263 259 259 270 280 286 290 293 299 303 305 300 294 292 294 299 307 304 307 306 307 312 310 303 297 295 292 293 294 294 295 296 296 297 295 293 292 292 292 292 291 288
237 246 255 253 267 277 259 240 269 266 271 279 284 286 290 296 298 300 291 292 293 296 299 301 306 307 309 309 311 309 305 302 300 299 298 296 296 296 296 296 296 294 294 293 293 292 291 289 286
237 247 212 242 271 275 276 263 263 262 278 278 279 282 286 290 292 288 285 291 292 295 300 301 305 305 309 310 310 308 306 303 299 296 296 296 296 294 294 293 292 292 292 291 295 293 289 288 288
183 261 270 230 237 256 265 280 262 262 274 274 274 276 282 284 286 281 285 290 293 295 298 305 305 306 310 309 309 308 306 302 301 302 300 301 298 297 293 291 290 289 289 289 288 290 289 286 288
190 220 229 247 252 250 271 261 270 267 277 269 271 275 281 289 287 286 288 289 296 299 302 305 306 307 308 309 307 306 305 304 304 304 302 300 299 297 295 293 290 290 290 288 288 288 288 287 288
221 219 199 243 254 255 262 255 268 257 265 276 274 278 284 285 286 287 287 292 296 300 302 303 305 306 307 307 308 308 308 309 308 306 304 303 300 298 297 296 293 290 289 289 289 288 288 286 285
221 224 204 239 245 268 262 243 280 278 272 282 277 288 292 295 288 284 287 291 295 297 299 302 304 305 306 308 309 310 310 309 307 305 304 302 300 299 298 297 295 293 292 292 291 289 285 281 283
224 222 216 240 233 256 248 266 296 262 263 256 244 277 291 297 293 286 288 291 292 295 299 301 303 306 309 311 313 313 312 310 309 308 307 305 303 299 297 296 296 297 296 296 293 293 290 287 287
205 206 224 226 248 267 282 282 274 267 212 261 266 304 286 288 293 292 292 292 293 298 300 302 306 308 312 314 315 315 313 314 314 311 309 305 302 299 298 297 299 298 294 294 295 294 297 301 299
203 210 222 238 244 264 275 265 280 266 292 308 306 297 297 290 294 299 300 297 297 300 302 305 308 312 314 318 318 318 321 320 320 317 312 304 296 296 300 296 293 292 293 293 294 304 306 306 307
211 216 211 231 243 262 243 226 267 275 288 299 305 314 309 250 307 306 304 298 300 305 306 309 312 314 318 322 322 326 326 327 328 327 321 310 299 296 297 287 287 290 293 293 302 305 307 308 309
223 214 218 241 261 284 312 223 262 261 284 287 292 297 306 311 305 303 300 299 305 303 308 310 313 317 323 325 328 330 334 333 335 340 339 329 312 306 293 292 293 294 300 304 306 310 314 316 317
214 247 228 237 250 236 252 261 246 269 284 281 281 290 295 306 301 297 299 300 303 308 310 311 317 321 327 328 330 334 341 347 344 349 356 356 349 338 328 319 310 309 310 316 321 324 325 328 330
221 223 208 225 240 235 236 238 266 273 274 293 304 304 299 307 294 296 296 299 306 311 312 315 318 322 327 328 327 333 336 346 350 355 356 359 357 355 342 326 323 324 331 335 335 335 335 332 322
216 228 231 217 243 247 254 249 237 247 273 275 294 297 298 301 293 298 301 305 310 311 312 315 320 323 326 326 325 331 337 347 347 356 357 359 353 348 338 338 348 351 348 344 342 338 327 324 325
Height
5907 5908 5908 5906 5906 5904 5896 5891 5900 5900 5897 5895 5893 5896 5895 5893 5891 5892 5891 5891 5890 5891 5890 5890 5890 5890 5891 5891 5891 5891 5892 5892 5893 5894 5893 5893 5893 5892 5892 5892 5891 5890 5890 5890 5890 5890 5890 5890 5890
5906 5907 5909 5906 5906 5900 5900 5896 5872 5902 5899 5895 5891 5889 5891 5890 5890 5888 5889 5888 5888 5888 5888 5888 5887 5888 5889 5889 5890 5890 5891 5891 5890 5890 5889 5889 5889 5888 5887 5887 5887 5886 5885 5885 5885 5886 5885 5885 5885
5905 5907 5908 5908 5905 5897 5898 5894 5880 5900 5896 5895 5892 5888 5889 5889 5888 5888 5888 5888 5888 5887 5887 5886 5885 5886 5887 5887 5887 5887 5887 5886 5886 5886 5886 5885 5885 5885 5884 5884 5884 5883 5883 5882 5882 5881 5882 5882 5882
5904 5906 5907 5908 5911 5902 5890 5898 5899 5889 5893 5891 5892 5888 5886 5887 5887 5887 5887 5886 5886 5886 5885 5885 5884 5884 5885 5886 5886 5886 5885 5884 5883 5883 5882 5882 5881 5881 5880 5880 5879 5878 5878 5877 5877 5877 5877 5877 5877
5902 5904 5907 5907 5902 5905 5900 5895 5898 5892 5888 5895 5892 5888 5885 5885 5886 5886 5885 5884 5884 5884 5883 5884 5884 5884 5884 5884 5884 5883 5883 5882 5882 5881 5880 5880 5879 5878 5877 5876 5875 5875 5874 5873 5872 5872 5872 5872 5872
5900 5902 5904 5905 5892 5897 5896 5906 5896 5883 5887 5894 5891 5886 5884 5884 5884 5884 5883 5883 5882 5882 5882 5882 5881 5881 5882 5882 5881 5881 5880 5879 5878 5877 5876 5875 5875 5873 5872 5871 5870 5870 5869 5868 5867 5867 5866 5866 5865
5897 5898 5900 5905 5900 5899 5897 5896 5900 5891 5883 5885 5888 5886 5885 5884 5883 5883 5882 5881 5881 5881 5881 5879 5879 5879 5878 5878 5877 5877 5876 5875 5874 5873 5872 5871 5869 5867 5867 5865 5864 5863 5863 5862 5861 5860 5859 5859 5858
5892 5894 5897 5901 5896 5892 5893 5898 5869 5884 5883 5883 5883 5884 5883 5883 5882 5882 5882 5881 5880 5879 5878 5878 5877 5877 5871 5871 5874 5872 5872 5871 5870 5868 5867 5865 5864 5863 5862 5860 5858 5857 5856 5855 5854 5853 5852 5851 5850
5888 5890 5893 5900 5908 5900 5899 5891 5888 5887 5887 5884 5882 5881 5882 5881 5881 5881 5881 5880 5879 5878 5877 5876 5875 5875 5874 5871 5871 5870 5869 5867 5866 5864 5862 5861 5860 5858 5857 5855 5853 5851 5849 5848 5846 5844 5843 5843 5841
5884 5886 5891 5896 5904 5905 5894 5894 5885 5885 5886 5884 5882 5880 5880 5880 5879 5879 5879 5878 5878 5877 5876 5875 5874 5873 5872 5869 5869 5867 5866 5866 5863 5862 5860 5857 5855 5852 5850 5849 5847 5844 5842 5841 5839 5837 5835 5834 5832
5882 5884 5887 5892 5899 5900 5896 5886 5880 5879 5880 5882 5882 5880 5878 5879 5879 5878 5877 5876 5876 5876 5875 5873 5872 5870 5868 5868 5865 5864 5862 5860 5860 5857 5854 5852 5849 5846 5843 5841 5839 5838 5835 5832 5832 5830 5828 5826 5825
5879 5881 5884 5886 5890 5891 5892 5881 5883 5870 5874 5878 5880 5879 5877 5877 5877 5877 5877 5877 5876 5875 5873 5871 5870 5868 5866 5865 5863 5861 5860 5856 5854 5853 5849 5846 5845 5841 5838 5836 5832 5830 5828 5825 5823 5821 5820 5817 5815
5877 5879 5881 5882 5882 5886 5887 5881 5881 5879 5877 5877 5877 5877 5875 5875 5875 5875 5875 5875 5875 5873 5872 5870 5869 5867 5865 5861 5860 5857 5854 5853 5850 5849 5844 5841 5839 5835 5832 5829 5826 5823 5821 5818 5815 5813 5811 5809 5806
5873 5875 5877 5878 5879 5880 5882 5874 5880 5878 5876 5876 5875 5874 5873 5873 5873 5873 5872 5872 5871 5870 5869 5868 5866 5864 5862 5859 5856 5854 5850 5847 5845 5843 5839 5835 5832 5828 5825 5822 5819 5817 5812 5810 5807 5805 5802 5800 5798
5870 5871 5873 5874 5875 5875 5876 5874 5873 5876 5873 5872 5871 5870 5870 5870 5871 5871 5870 5869 5868 5867 5866 5865 5863 5860 5858 5855 5852 5848 5845 5842 5838 5835 5833 5827 5824 5820 5816 5813 5810 5807 5803 5801 5798 5795 5792 5791 5789
5866 5868 5869 5869 5870 5871 5871 5871 5870 5871 5870 5869 5869 5868 5867 5867 5867 5867 5867 5865 5865 5864 5862 5861 5858 5856 5853 5850 5846 5842 5838 5835 5831 5828 5824 5819 5815 5810 5805 5802 5800 5796 5792 5790 5788 5786 5782 5780 5778
5863 5865 5866 5869 5866 5868 5868 5867 5865 5865 5865 5866 5866 5865 5864 5864 5864 5863 5862 5862 5861 5860 5858 5856 5853 5850 5847 5843 5839 5835 5831 5827 5823 5818 5814 5809 5804 5800 5795 5790 5788 5784 5781 5779 5778 5774 5772 5769 5767
5860 5863 5867 5868 5865 5866 5864 5862 5861 5862 5860 5861 5861 5860 5860 5860 5860 5859 5859 5858 5856 5855 5853 5850 5847 5844 5841 5836 5832 5827 5822 5817 5813 5808 5805 5801 5795 5790 5786 5781 5777 5773 5769 5767 5767 5763 5759 5757 5757
5862 5868 5867 5869 5858 5859 5860 5857 5858 5860 5859 5856 5856 5855 5855 5856 5857 5855 5855 5853 5851 5850 5847 5844 5841 5837 5833 5829 5824 5819 5813 5808 5803 5797 5792 5790 5783 5779 5774 5769 5765 5761 5758 5757 5754 5752 5749 5747 5748
5855 5861 5866 5865 5855 5858 5861 5855 5857 5858 5858 5854 5852 5850 5850 5851 5852 5850 5849 5848 5846 5844 5842 5838 5834 5829 5825 5821 5816 5810 5804 5798 5792 5786 5781 5776 5772 5766 5761 5757 5753 5749 5746 5744 5742 5741 5737 5737 5736
5850 5854 5861 5861 5858 5858 5857 5856 5844 5852 5852 5853 5849 5846 5845 5846 5847 5845 5843 5842 5840 5838 5835 5831 5827 5822 5818 5813 5807 5800 5794 5786 5780 5773 5768 5764 5758 5754 5749 5745 5741 5739 5735 5733 5731 5729 5728 5727 5726
5846 5849 5854 5856 5853 5852 5850 5850 5841 5837 5848 5848 5847 5844 5841 5841 5841 5840 5838 5836 5835 5832 5828 5824 5819 5815 5811 5805 5797 5791 5784 5777 5770 5763 5757 5752 5746 5742 5738 5734 5731 5729 5726 5724 5722 5720 5719 5718 5717
5843 5848 5849 5848 5846 5847 5845 5845 5849 5846 5839 5839 5838 5841 5838 5835 5834 5833 5832 5830 5829 5826 5822 5817 5812 5807 5802 5797 5790 5782 5774 5767 5759 5751 5744 5738 5734 5731 5728 5725 5723 5721 5718 5717 5715 5713 5712 5711 5711
5840 5843 5846 5846 5847 5844 5843 5839 5838 5830 5808 5832 5836 5837 5834 5830 5828 5826 5825 5824 5821 5819 5815 5809 5805 5800 5795 5789 5782 5774 5766 5757 5748 5740 5733 5728 5724 5721 5719 5718 5716 5714 5713 5712 5711 5710 5709 5709 5708
5837 5838 5841 5843 5842 5840 5842 5838 5833 5832 5823 5826 5828 5831 5827 5824 5822 5818 5818 5817 5815 5812 5807 5803 5798 5793 5788 5782 5774 5766 5757 5747 5738 5730 5723 5718 5714 5712 5711 5711 5710 5709 5709 5708 5708 5708 5707 5706 5704
5833 5834 5838 5839 5837 5833 5836 5833 5825 5824 5824 5826 5818 5814 5813 5812 5819 5813 5812 5810 5808 5805 5800 5796 5792 5787 5782 5775 5766 5758 5749 5741 5732 5723 5714 5708 5705 5704 5704 5705 5705 5705 5706 5706 5706 5705 5703 5701 5700
5827 5828 5834 5834 5834 5832 5832 5826 5827 5823 5822 5823 5822 5818 5818 5815 5811 5808 5807 5804 5802 5799 5795 5790 5786 5781 5776 5768 5760 5753 5745 5737 5728 5719 5709 5702 5701 5700 5701 5702 5702 5703 5703 5703 5702 5701 5699 5698 5696
5825 5826 5828 5830 5830 5830 5833 5831 5821 5820 5816 5820 5821 5814 5814 5812 5805 5804 5801 5798 5796 5793 5789 5784 5780 5775 5769 5762 5755 5750 5743 5734 5727 5718 5710 5705 5702 5701 5701 5701 5701 5702 5702 5701 5699 5698 5696 5694 5691
5819 5819 5821 5826 5824 5824 5825 5823 5820 5818 5814 5808 5808 5807 5807 5808 5801 5800 5797 5794 5790 5787 5783 5778 5774 5770 5764 5758 5752 5747 5741 5734 5727 5720 5714 5709 5706 5704 5703 5703 5702 5702 5700 5699 5697 5695 5693 5690 5688
5813 5815 5817 5818 5819 5821 5817 5814 5812 5812 5811 5809 5809 5803 5796 5802 5797 5795 5792 5788 5785 5781 5778 5773 5769 5765 5759 5754 5750 5745 5740 5733 5728 5722 5717 5713 5710 5707 5706 5704 5703 5701 5700 5698 5695 5693 5690 5688 5683